Location: Ku?niki
(51.4449°N, 17.8974°E)
Time: 01:28:07
(UTC+00:00)

VELOX 1 - Pass Details

Date: 06 July 2022
Orbit: 624 x 639 km, 98.4° (Epoch: 07 August)

Event Time Altitude Azimuth Distance (km) Brightness Sun altitude
Rises 01:21:01 0° 107° (ESE) 2,937 ? -9.1°
Reaches altitude 10° 01:24:22 10° 79° (E) 2,036 ? -8.8°
Maximum altitude 01:26:19 13° 53° (NE) 1,854 ? -8.6°
Drops below altitude 10° 01:28:17 10° 26° (NNE) 2,043 ? -8.4°
Sets 01:31:38 0° 359° (N) 2,959 ? -8.1°
